,,PressureMeas_1m,,PRMeasQMR101_1,,RHStat155_1m_1,,SRMeasQMS101R_1m,,TAStat155_1m_1,,GenWind_1,,GenWind_1,
2019-01-06, 07:00:07,VALID,919.004,VALID,0.0,VALID,98.365,VALID,39.472,VALID,19.394,VALID,119.0,VALID,0.0,
2019-01-06, 07:01:07,VALID,919.006,VALID,0.0,VALID,98.409,VALID,40.19,VALID,19.417,VALID,109.0,VALID,0.0,
2019-01-06, 07:02:07,VALID,919.037,VALID,0.0,VALID,98.395,VALID,40.768,VALID,19.415,VALID,103.0,VALID,0.0,
2019-01-06, 07:03:07,VALID,919.06,VALID,0.0,VALID,98.4,VALID,41.271,VALID,19.425,VALID,92.0,VALID,0.0,
2019-01-06, 07:04:07,VALID,919.06,VALID,0.0,VALID,98.312,VALID,41.862,VALID,19.409,VALID,82.0,VALID,0.0,
2019-01-06, 07:05:07,VALID,919.074,VALID,0.0,VALID,98.275,VALID,42.657,VALID,19.406,VALID,81.0,VALID,0.0,
2019-01-06, 07:06:07,VALID,919.06,VALID,0.0,VALID,98.265,VALID,44.052,VALID,19.414,VALID,91.0,VALID,0.0,
2019-01-06, 07:07:07,VALID,919.067,VALID,0.0,VALID,98.241,VALID,44.332,VALID,19.433,VALID,87.0,VALID,0.0,
2019-01-06, 07:08:07,VALID,919.056,VALID,0.0,VALID,98.211,VALID,44.919,VALID,19.45,VALID,76.0,VALID,0.0,
2019-01-06, 07:09:07,VALID,919.068,VALID,0.0,VALID,98.186,VALID,45.991,VALID,19.461,VALID,81.0,VALID,0.0,
2019-01-06, 07:10:07,VALID,919.083,VALID,0.0,VALID,98.102,VALID,47.387,VALID,19.447,VALID,83.0,VALID,0.0,
2019-01-06, 07:11:07,VALID,919.096,VALID,0.0,VALID,98.061,VALID,48.992,VALID,19.443,VALID,92.0,VALID,0.0,
2019-01-06, 07:12:07,VALID,919.096,VALID,0.0,VALID,98.039,VALID,50.615,VALID,19.444,VALID,93.0,VALID,0.0,
2019-01-06, 07:13:07,VALID,919.118,VALID,0.0,VALID,98.03,VALID,52.069,VALID,19.457,VALID,112.0,VALID,0.0,
2019-01-06, 07:14:07,VALID,919.121,VALID,0.0,VALID,97.983,VALID,53.262,VALID,19.465,VALID,124.0,VALID,0.0,
2019-01-06, 07:15:07,VALID,919.11,VALID,0.0,VALID,97.942,VALID,54.137,VALID,19.483,VALID,123.0,VALID,0.0,
2019-01-06, 07:16:07,VALID,919.123,VALID,0.0,VALID,97.935,VALID,55.836,VALID,19.511,VALID,120.0,VALID,0.0,
2019-01-06, 07:17:07,VALID,919.127,VALID,0.0,VALID,97.89,VALID,58.677,VALID,19.523,VALID,121.0,VALID,0.0,
2019-01-06, 07:18:07,VALID,919.124,VALID,0.0,VALID,97.941,VALID,62.629,VALID,19.557,VALID,118.0,VALID,0.0,
2019-01-06, 07:19:07,VALID,919.139,VALID,0.0,VALID,97.869,VALID,66.982,VALID,19.552,VALID,121.0,VALID,0.0,
2019-01-06, 07:20:07,VALID,919.131,VALID,0.0,VALID,97.802,VALID,70.778,VALID,19.552,VALID,120.0,VALID,0.0,
2019-01-06, 07:21:07,VALID,919.119,VALID,0.0,VALID,97.896,VALID,74.288,VALID,19.608,VALID,134.0,VALID,0.0,
2019-01-06, 07:22:07,VALID,919.12,VALID,0.0,VALID,97.863,VALID,78.19,VALID,19.63,VALID,144.0,VALID,0.0,
2019-01-06, 07:23:07,VALID,919.114,VALID,0.0,VALID,97.821,VALID,82.056,VALID,19.649,VALID,139.0,VALID,0.0,
2019-01-06, 07:24:07,VALID,919.135,VALID,0.0,VALID,97.74,VALID,86.695,VALID,19.681,VALID,135.0,VALID,0.0,
2019-01-06, 07:25:07,VALID,919.148,VALID,0.0,VALID,97.578,VALID,92.233,VALID,19.719,VALID,133.0,VALID,0.0,
2019-01-06, 07:26:07,VALID,919.147,VALID,0.0,VALID,97.308,VALID,97.863,VALID,19.721,VALID,129.0,VALID,0.0,
2019-01-06, 07:27:07,VALID,919.164,VALID,0.0,VALID,97.194,VALID,103.39,VALID,19.743,VALID,150.0,VALID,0.0,
2019-01-06, 07:28:07,VALID,919.156,VALID,0.0,VALID,97.179,VALID,108.45,VALID,19.789,VALID,142.0,VALID,0.0,
2019-01-06, 07:29:07,VALID,919.151,VALID,0.0,VALID,97.148,VALID,113.805,VALID,19.817,VALID,134.0,VALID,0.0,
2019-01-06, 07:30:07,VALID,919.17,VALID,0.0,VALID,96.967,VALID,116.265,VALID,19.841,VALID,136.0,VALID,0.0,
2019-01-06, 07:31:07,VALID,919.16,VALID,0.0,VALID,96.853,VALID,120.339,VALID,19.897,VALID,132.0,VALID,0.0,
2019-01-06, 07:32:07,VALID,919.139,VALID,0.0,VALID,96.725,VALID,121.884,VALID,19.931,VALID,168.0,VALID,0.0,
2019-01-06, 07:33:07,VALID,919.165,VALID,0.0,VALID,96.611,VALID,122.555,VALID,19.972,VALID,122.0,VALID,0.0,
2019-01-06, 07:34:07,VALID,919.174,VALID,0.0,VALID,96.316,VALID,124.316,VALID,19.972,VALID,136.0,VALID,0.0,
2019-01-06, 07:35:07,VALID,919.167,VALID,0.0,VALID,96.13,VALID,126.701,VALID,19.988,VALID,123.0,VALID,0.0,
2019-01-06, 07:36:07,VALID,919.196,VALID,0.0,VALID,96.003,VALID,128.516,VALID,20.018,VALID,126.0,VALID,0.0,
2019-01-06, 07:37:07,VALID,919.201,VALID,0.0,VALID,95.885,VALID,132.643,VALID,20.06,VALID,131.0,VALID,0.0,
2019-01-06, 07:38:07,VALID,919.216,VALID,0.0,VALID,95.811,VALID,136.697,VALID,20.101,VALID,130.0,VALID,0.0,
2019-01-06, 07:39:07,VALID,919.232,VALID,0.0,VALID,95.339,VALID,140.304,VALID,20.131,VALID,170.0,VALID,0.0,
2019-01-06, 07:40:07,VALID,919.237,VALID,0.0,VALID,94.849,VALID,147.093,VALID,20.182,VALID,129.0,VALID,0.0,
2019-01-06, 07:41:07,VALID,919.269,VALID,0.0,VALID,94.938,VALID,151.978,VALID,20.264,VALID,118.0,VALID,0.0,
2019-01-06, 07:42:07,VALID,919.285,VALID,0.0,VALID,94.524,VALID,156.868,VALID,20.295,VALID,145.0,VALID,0.0,
2019-01-06, 07:43:07,VALID,919.322,VALID,0.0,VALID,94.194,VALID,155.431,VALID,20.34,VALID,135.0,VALID,0.0,
2019-01-06, 07:44:07,VALID,919.342,VALID,0.0,VALID,94.071,VALID,164.576,VALID,20.373,VALID,148.0,VALID,0.0,
2019-01-06, 07:45:07,VALID,919.331,VALID,0.0,VALID,93.872,VALID,166.601,VALID,20.413,VALID,120.0,VALID,0.0,
2019-01-06, 07:46:07,VALID,919.349,VALID,0.0,VALID,93.144,VALID,166.279,VALID,20.425,VALID,132.0,VALID,0.0,
2019-01-06, 07:47:07,VALID,919.356,VALID,0.0,VALID,92.822,VALID,169.564,VALID,20.454,VALID,144.0,VALID,0.0,
2019-01-06, 07:48:06,VALID,919.36,VALID,0.0,VALID,92.793,VALID,176.466,VALID,20.502,VALID,122.0,VALID,0.0,
2019-01-06, 07:49:06,VALID,919.372,VALID,0.0,VALID,93.253,VALID,181.025,VALID,20.565,VALID,129.0,VALID,0.0,
2019-01-06, 07:50:06,VALID,919.351,VALID,0.0,VALID,92.845,VALID,183.751,VALID,20.628,VALID,124.0,VALID,0.0,
2019-01-06, 07:51:06,VALID,919.361,VALID,0.0,VALID,92.529,VALID,191.887,VALID,20.641,VALID,144.0,VALID,0.0,
2019-01-06, 07:52:06,VALID,919.346,VALID,0.0,VALID,92.679,VALID,195.466,VALID,20.678,VALID,121.0,VALID,0.0,
2019-01-06, 07:53:06,VALID,919.323,VALID,0.0,VALID,92.409,VALID,196.046,VALID,20.759,VALID,121.0,VALID,0.0,
2019-01-06, 07:54:06,VALID,919.334,VALID,0.0,VALID,91.752,VALID,205.991,VALID,20.774,VALID,141.0,VALID,0.0,
2019-01-06, 07:55:06,VALID,919.315,VALID,0.0,VALID,91.345,VALID,211.261,VALID,20.797,VALID,125.0,VALID,0.0,
2019-01-06, 07:56:06,VALID,919.332,VALID,0.0,VALID,91.203,VALID,213.616,VALID,20.849,VALID,156.0,VALID,0.0,
2019-01-06, 07:57:06,VALID,919.308,VALID,0.0,VALID,91.095,VALID,217.863,VALID,20.922,VALID,149.0,VALID,0.0,
2019-01-06, 07:58:06,VALID,919.315,VALID,0.0,VALID,90.826,VALID,220.939,VALID,21.011,VALID,135.0,VALID,0.0,
2019-01-06, 07:59:06,VALID,919.302,VALID,0.0,VALID,90.433,VALID,229.903,VALID,21.114,VALID,135.0,VALID,0.0,
2019-01-06, 08:00:06,VALID,919.297,VALID,0.0,VALID,89.845,VALID,236.837,VALID,21.207,VALID,129.0,VALID,0.0,
2019-01-06, 08:01:06,VALID,919.297,VALID,0.0,VALID,89.257,VALID,242.751,VALID,21.192,VALID,145.0,VALID,0.0,
2019-01-06, 08:02:06,VALID,919.302,VALID,0.0,VALID,89.606,VALID,248.663,VALID,21.194,VALID,155.0,VALID,0.0,
2019-01-06, 08:03:06,VALID,919.311,VALID,0.0,VALID,89.597,VALID,258.56,VALID,21.241,VALID,128.0,VALID,0.0,
2019-01-06, 08:04:06,VALID,919.294,VALID,0.0,VALID,89.393,VALID,270.082,VALID,21.321,VALID,153.0,VALID,0.0,
2019-01-06, 08:05:06,VALID,919.282,VALID,0.0,VALID,89.107,VALID,279.432,VALID,21.402,VALID,129.0,VALID,0.0,
2019-01-06, 08:06:06,VALID,919.258,VALID,0.0,VALID,88.468,VALID,288.597,VALID,21.514,VALID,144.0,VALID,0.0,
2019-01-06, 08:07:06,VALID,919.242,VALID,0.0,VALID,87.471,VALID,293.132,VALID,21.535,VALID,133.0,VALID,0.0,
2019-01-06, 08:08:06,VALID,919.233,VALID,0.0,VALID,87.973,VALID,299.568,VALID,21.604,VALID,137.0,VALID,0.0,
2019-01-06, 08:09:06,VALID,919.195,VALID,0.0,VALID,86.83,VALID,299.917,VALID,21.74,VALID,163.0,VALID,0.0,
2019-01-06, 08:10:06,VALID,919.186,VALID,0.0,VALID,86.617,VALID,301.923,VALID,21.78,VALID,145.0,VALID,0.0,
2019-01-06, 08:11:06,VALID,919.194,VALID,0.0,VALID,86.485,VALID,309.325,VALID,21.848,VALID,134.0,VALID,0.0,
2019-01-06, 08:12:06,VALID,919.192,VALID,0.0,VALID,86.779,VALID,311.16,VALID,21.956,VALID,152.0,VALID,0.0,
2019-01-06, 08:13:06,VALID,919.188,VALID,0.0,VALID,85.859,VALID,317.896,VALID,22.02,VALID,134.0,VALID,0.0,
2019-01-06, 08:14:06,VALID,919.187,VALID,0.0,VALID,85.438,VALID,325.519,VALID,22.046,VALID,130.0,VALID,0.0,
2019-01-06, 08:15:06,VALID,919.192,VALID,0.0,VALID,85.82,VALID,334.119,VALID,22.13,VALID,125.0,VALID,0.0,
2019-01-06, 08:16:06,VALID,919.203,VALID,0.0,VALID,85.392,VALID,336.805,VALID,22.2,VALID,128.0,VALID,0.0,
2019-01-06, 08:17:06,VALID,919.205,VALID,0.0,VALID,84.712,VALID,338.396,VALID,22.134,VALID,139.0,VALID,0.0,
2019-01-06, 08:18:06,VALID,919.21,VALID,0.0,VALID,85.634,VALID,345.375,VALID,22.204,VALID,122.0,VALID,0.0,
2019-01-06, 08:19:06,VALID,919.199,VALID,0.0,VALID,85.428,VALID,351.422,VALID,22.387,VALID,136.0,VALID,0.0,
2019-01-06, 08:20:06,VALID,919.196,VALID,0.0,VALID,83.633,VALID,354.034,VALID,22.48,VALID,125.0,VALID,0.0,
2019-01-06, 08:21:06,VALID,919.185,VALID,0.0,VALID,83.269,VALID,362.784,VALID,22.549,VALID,136.0,VALID,0.0,
2019-01-06, 08:22:06,VALID,919.162,VALID,0.0,VALID,83.652,VALID,368.163,VALID,22.707,VALID,109.0,VALID,0.0,
2019-01-06, 08:23:06,VALID,919.165,VALID,0.0,VALID,82.746,VALID,375.95,VALID,22.936,VALID,141.0,VALID,0.0,
2019-01-06, 08:24:06,VALID,919.164,VALID,0.0,VALID,81.835,VALID,383.599,VALID,23.087,VALID,126.0,VALID,0.0,
2019-01-06, 08:25:06,VALID,919.167,VALID,0.0,VALID,81.207,VALID,391.022,VALID,23.224,VALID,160.0,VALID,0.0,
2019-01-06, 08:26:06,VALID,919.168,VALID,0.0,VALID,80.413,VALID,394.752,VALID,23.217,VALID,130.0,VALID,0.0,
2019-01-06, 08:27:06,VALID,919.168,VALID,0.0,VALID,80.729,VALID,398.008,VALID,23.191,VALID,117.0,VALID,0.0,
2019-01-06, 08:28:06,VALID,919.16,VALID,0.0,VALID,81.353,VALID,401.813,VALID,23.278,VALID,119.0,VALID,0.0,
2019-01-06, 08:29:06,VALID,919.152,VALID,0.0,VALID,80.426,VALID,405.72,VALID,23.454,VALID,124.0,VALID,0.0,
2019-01-06, 08:30:06,VALID,919.147,VALID,0.0,VALID,79.388,VALID,410.772,VALID,23.48,VALID,142.0,VALID,0.0,
2019-01-06, 08:31:06,VALID,919.155,VALID,0.0,VALID,79.284,VALID,415.053,VALID,23.587,VALID,116.0,VALID,0.0,
2019-01-06, 08:32:06,VALID,919.141,VALID,0.0,VALID,78.971,VALID,419.762,VALID,23.661,VALID,138.0,VALID,0.0,
2019-01-06, 08:33:06,VALID,919.144,VALID,0.0,VALID,78.706,VALID,424.553,VALID,23.761,VALID,112.0,VALID,0.0,
2019-01-06, 08:34:06,VALID,919.129,VALID,0.0,VALID,78.216,VALID,427.846,VALID,23.813,VALID,117.0,VALID,0.0,
2019-01-06, 08:35:06,VALID,919.147,VALID,0.0,VALID,78.584,VALID,431.514,VALID,23.746,VALID,125.0,VALID,0.0,
2019-01-06, 08:36:06,VALID,919.161,VALID,0.0,VALID,77.561,VALID,435.856,VALID,23.684,VALID,184.0,VALID,0.0,
2019-01-06, 08:37:06,VALID,919.147,VALID,0.0,VALID,78.663,VALID,438.57,VALID,23.527,VALID,134.0,VALID,0.0,
2019-01-06, 08:38:06,VALID,919.141,VALID,0.0,VALID,79.709,VALID,441.429,VALID,23.687,VALID,123.0,VALID,0.0,
2019-01-06, 08:39:06,VALID,919.161,VALID,0.0,VALID,77.976,VALID,444.197,VALID,23.779,VALID,99.0,VALID,0.0,
2019-01-06, 08:40:06,VALID,919.158,VALID,0.0,VALID,79.373,VALID,446.786,VALID,23.911,VALID,91.0,VALID,0.0,
2019-01-06, 08:41:06,VALID,919.165,VALID,0.0,VALID,77.029,VALID,449.369,VALID,24.128,VALID,165.0,VALID,0.0,
2019-01-06, 08:42:06,VALID,919.172,VALID,0.0,VALID,75.982,VALID,451.43,VALID,24.037,VALID,165.0,VALID,0.0,
2019-01-06, 08:43:06,VALID,919.155,VALID,0.0,VALID,74.964,VALID,451.789,VALID,23.852,VALID,193.0,VALID,0.0,
2019-01-06, 08:44:06,VALID,919.141,VALID,0.0,VALID,76.672,VALID,457.983,VALID,23.736,VALID,177.0,VALID,0.0,
2019-01-06, 08:45:06,VALID,919.143,VALID,0.0,VALID,78.839,VALID,460.94,VALID,23.712,VALID,119.0,VALID,0.0,
2019-01-06, 08:46:06,VALID,919.147,VALID,0.0,VALID,77.637,VALID,463.458,VALID,23.843,VALID,114.0,VALID,0.0,
2019-01-06, 08:47:06,VALID,919.139,VALID,0.0,VALID,77.104,VALID,465.111,VALID,24.112,VALID,108.0,VALID,0.0,
2019-01-06, 08:48:06,VALID,919.123,VALID,0.0,VALID,75.806,VALID,468.995,VALID,24.375,VALID,115.0,VALID,0.0,
2019-01-06, 08:49:06,VALID,919.13,VALID,0.0,VALID,75.894,VALID,471.239,VALID,24.701,VALID,82.0,VALID,0.0,
2019-01-06, 08:50:06,VALID,919.119,VALID,0.0,VALID,76.097,VALID,471.838,VALID,25.072,VALID,84.0,VALID,0.0,
2019-01-06, 08:51:06,VALID,919.149,VALID,0.0,VALID,73.816,VALID,472.335,VALID,25.423,VALID,125.0,VALID,0.0,
2019-01-06, 08:52:06,VALID,919.141,VALID,0.0,VALID,71.586,VALID,473.754,VALID,25.451,VALID,163.0,VALID,0.0,
2019-01-06, 08:53:06,VALID,919.148,VALID,0.0,VALID,71.809,VALID,474.494,VALID,25.385,VALID,140.0,VALID,0.0,
2019-01-06, 08:54:06,VALID,919.151,VALID,0.0,VALID,72.121,VALID,475.649,VALID,25.474,VALID,121.0,VALID,0.0,
2019-01-06, 08:55:06,VALID,919.155,VALID,0.0,VALID,71.625,VALID,477.35,VALID,25.536,VALID,126.0,VALID,0.0,
2019-01-06, 08:56:06,VALID,919.133,VALID,0.0,VALID,72.012,VALID,480.155,VALID,25.45,VALID,102.0,VALID,0.0,
2019-01-06, 08:57:06,VALID,919.139,VALID,0.0,VALID,73.137,VALID,480.341,VALID,25.291,VALID,97.0,VALID,0.0,
2019-01-06, 08:58:06,VALID,919.126,VALID,0.0,VALID,73.954,VALID,482.704,VALID,25.121,VALID,111.0,VALID,0.0,
2019-01-06, 08:59:06,VALID,919.159,VALID,0.0,VALID,72.792,VALID,483.904,VALID,25.024,VALID,117.0,VALID,0.0,
2019-01-06, 09:00:06,VALID,919.138,VALID,0.0,VALID,73.626,VALID,481.882,VALID,24.883,VALID,92.0,VALID,0.0,
2019-01-06, 09:01:06,VALID,919.149,VALID,0.0,VALID,75.656,VALID,479.99,VALID,24.992,VALID,146.0,VALID,0.0,
2019-01-06, 09:02:06,VALID,919.17,VALID,0.0,VALID,74.421,VALID,481.243,VALID,25.092,VALID,146.0,VALID,0.0,
2019-01-06, 09:03:06,VALID,919.175,VALID,0.0,VALID,73.971,VALID,480.918,VALID,25.081,VALID,165.0,VALID,0.0,
2019-01-06, 09:04:06,VALID,919.201,VALID,0.0,VALID,74.753,VALID,481.707,VALID,25.252,VALID,114.0,VALID,0.0,
2019-01-06, 09:05:06,VALID,919.201,VALID,0.0,VALID,73.069,VALID,482.24,VALID,25.561,VALID,143.0,VALID,0.0,
2019-01-06, 09:06:06,VALID,919.204,VALID,0.0,VALID,72.674,VALID,470.672,VALID,25.727,VALID,100.0,VALID,0.0,
2019-01-06, 09:07:06,VALID,919.216,VALID,0.0,VALID,70.76,VALID,483.56,VALID,25.686,VALID,111.0,VALID,0.0,
2019-01-06, 09:08:06,VALID,919.219,VALID,0.0,VALID,71.014,VALID,488.99,VALID,25.267,VALID,147.0,VALID,0.0,
2019-01-06, 09:09:06,VALID,919.229,VALID,0.0,VALID,72.363,VALID,489.903,VALID,25.323,VALID,112.0,VALID,0.0,
2019-01-06, 09:10:06,VALID,919.241,VALID,0.0,VALID,72.331,VALID,488.113,VALID,25.591,VALID,126.0,VALID,0.0,
2019-01-06, 09:11:06,VALID,919.257,VALID,0.0,VALID,71.217,VALID,476.351,VALID,25.565,VALID,117.0,VALID,0.0,
2019-01-06, 09:12:06,VALID,919.259,VALID,0.0,VALID,71.87,VALID,484.187,VALID,25.485,VALID,107.0,VALID,0.0,
2019-01-06, 09:13:06,VALID,919.267,VALID,0.0,VALID,72.346,VALID,447.969,VALID,25.468,VALID,132.0,VALID,0.0,
2019-01-06, 09:14:06,VALID,919.264,VALID,0.0,VALID,71.907,VALID,420.164,VALID,25.326,VALID,183.0,VALID,0.0,
2019-01-06, 09:15:06,VALID,919.268,VALID,0.0,VALID,73.299,VALID,453.692,VALID,25.155,VALID,177.0,VALID,0.0,
2019-01-06, 09:16:06,VALID,919.259,VALID,0.0,VALID,73.122,VALID,447.691,VALID,25.114,VALID,185.0,VALID,0.0,
2019-01-06, 09:17:06,VALID,919.267,VALID,0.0,VALID,73.458,VALID,458.887,VALID,24.908,VALID,157.0,VALID,0.0,
2019-01-06, 09:18:06,VALID,919.294,VALID,0.0,VALID,76.107,VALID,457.369,VALID,24.971,VALID,101.0,VALID,0.0,
2019-01-06, 09:19:06,VALID,919.283,VALID,0.0,VALID,74.74,VALID,480.792,VALID,25.086,VALID,103.0,VALID,0.0,
2019-01-06, 09:20:06,VALID,919.291,VALID,0.0,VALID,74.536,VALID,477.226,VALID,25.257,VALID,104.0,VALID,0.0,
2019-01-06, 09:21:06,VALID,919.306,VALID,0.0,VALID,72.457,VALID,443.748,VALID,25.387,VALID,193.0,VALID,0.0,
2019-01-06, 09:22:06,VALID,919.31,VALID,0.0,VALID,71.784,VALID,492.783,VALID,25.231,VALID,152.0,VALID,0.0,
2019-01-06, 09:23:06,VALID,919.299,VALID,0.0,VALID,71.312,VALID,514.901,VALID,25.191,VALID,88.0,VALID,0.0,
2019-01-06, 09:24:06,VALID,919.293,VALID,0.0,VALID,71.325,VALID,528.589,VALID,25.335,VALID,70.0,VALID,0.0,
2019-01-06, 09:25:06,VALID,919.297,VALID,0.0,VALID,71.62,VALID,541.24,VALID,25.418,VALID,66.0,VALID,0.0,
2019-01-06, 09:26:06,VALID,919.292,VALID,0.0,VALID,71.578,VALID,537.32,VALID,25.646,VALID,51.0,VALID,0.0,
2019-01-06, 09:27:06,VALID,919.28,VALID,0.0,VALID,70.259,VALID,499.597,VALID,26.047,VALID,80.0,VALID,0.0,
2019-01-06, 09:28:06,VALID,919.266,VALID,0.0,VALID,68.874,VALID,469.673,VALID,26.215,VALID,141.0,VALID,0.0,
2019-01-06, 09:29:06,VALID,919.27,VALID,0.0,VALID,68.674,VALID,432.954,VALID,26.295,VALID,143.0,VALID,0.0,
2019-01-06, 09:30:06,VALID,919.263,VALID,0.0,VALID,69.223,VALID,393.982,VALID,26.533,VALID,110.0,VALID,0.0,
2019-01-06, 09:31:06,VALID,919.261,VALID,0.0,VALID,68.328,VALID,414.763,VALID,26.701,VALID,93.0,VALID,0.0,
2019-01-06, 09:32:06,VALID,919.255,VALID,0.0,VALID,69.765,VALID,427.813,VALID,26.635,VALID,120.0,VALID,0.0,
2019-01-06, 09:33:06,VALID,919.25,VALID,0.0,VALID,67.176,VALID,462.087,VALID,26.383,VALID,162.0,VALID,0.0,
2019-01-06, 09:34:06,VALID,919.253,VALID,0.0,VALID,68.299,VALID,490.327,VALID,26.086,VALID,140.0,VALID,0.0,
2019-01-06, 09:35:06,VALID,919.271,VALID,0.0,VALID,70.749,VALID,461.365,VALID,26.098,VALID,110.0,VALID,0.0,
2019-01-06, 09:36:06,VALID,919.257,VALID,0.0,VALID,70.265,VALID,478.01,VALID,26.144,VALID,100.0,VALID,0.0,
2019-01-06, 09:37:06,VALID,919.258,VALID,0.0,VALID,71.129,VALID,452.875,VALID,26.181,VALID,120.0,VALID,0.0,
2019-01-06, 09:38:06,VALID,919.253,VALID,0.0,VALID,71.662,VALID,385.179,VALID,26.213,VALID,108.0,VALID,0.0,
2019-01-06, 09:39:06,VALID,919.261,VALID,0.0,VALID,69.292,VALID,380.777,VALID,26.108,VALID,99.0,VALID,0.0,
2019-01-06, 09:40:06,VALID,919.272,VALID,0.0,VALID,70.503,VALID,396.229,VALID,25.843,VALID,129.0,VALID,0.0,
2019-01-06, 09:41:06,VALID,919.271,VALID,0.0,VALID,71.691,VALID,451.296,VALID,25.722,VALID,111.0,VALID,0.0,
2019-01-06, 09:42:06,VALID,919.282,VALID,0.0,VALID,71.4,VALID,487.116,VALID,25.576,VALID,106.0,VALID,0.0,
2019-01-06, 09:43:06,VALID,919.296,VALID,0.0,VALID,71.354,VALID,547.437,VALID,25.609,VALID,102.0,VALID,0.0,
2019-01-06, 09:44:06,VALID,919.314,VALID,0.0,VALID,73.462,VALID,578.707,VALID,25.754,VALID,107.0,VALID,0.0,
2019-01-06, 09:45:06,VALID,919.314,VALID,0.0,VALID,72.071,VALID,577.249,VALID,25.977,VALID,156.0,VALID,0.0,
2019-01-06, 09:46:06,VALID,919.326,VALID,0.0,VALID,69.773,VALID,475.56,VALID,26.102,VALID,141.0,VALID,0.0,
2019-01-06, 09:47:06,VALID,919.329,VALID,0.0,VALID,68.782,VALID,458.792,VALID,26.147,VALID,173.0,VALID,0.0,
2019-01-06, 09:48:06,VALID,919.324,VALID,0.0,VALID,68.794,VALID,272.784,VALID,26.155,VALID,159.0,VALID,0.0,
2019-01-06, 09:49:06,VALID,919.31,VALID,0.0,VALID,68.809,VALID,283.398,VALID,26.137,VALID,144.0,VALID,0.0,
2019-01-06, 09:50:06,VALID,919.312,VALID,0.0,VALID,70.159,VALID,376.056,VALID,26.158,VALID,170.0,VALID,0.0,
2019-01-06, 09:51:06,VALID,919.303,VALID,0.0,VALID,70.018,VALID,330.155,VALID,26.122,VALID,167.0,VALID,0.0,
2019-01-06, 09:52:06,VALID,919.296,VALID,0.0,VALID,71.436,VALID,332.941,VALID,25.876,VALID,151.0,VALID,0.0,
2019-01-06, 09:53:06,VALID,919.286,VALID,0.0,VALID,71.428,VALID,266.727,VALID,25.77,VALID,100.0,VALID,0.0,
2019-01-06, 09:54:06,VALID,919.277,VALID,0.0,VALID,72.42,VALID,258.637,VALID,25.601,VALID,62.0,VALID,0.0,
2019-01-06, 09:55:06,VALID,919.276,VALID,0.0,VALID,73.284,VALID,264.98,VALID,25.288,VALID,58.0,VALID,0.0,
2019-01-06, 09:56:06,VALID,919.283,VALID,0.0,VALID,74.651,VALID,288.226,VALID,25.135,VALID,63.0,VALID,0.0,
2019-01-06, 09:57:06,VALID,919.28,VALID,0.0,VALID,75.368,VALID,334.434,VALID,25.045,VALID,56.0,VALID,0.0,
2019-01-06, 09:58:06,VALID,919.283,VALID,0.0,VALID,77.239,VALID,445.015,VALID,25.098,VALID,70.0,VALID,0.0,
2019-01-06, 09:59:06,VALID,919.269,VALID,0.0,VALID,74.952,VALID,423.421,VALID,25.301,VALID,152.0,VALID,0.0,
2019-01-06, 10:00:06,VALID,919.285,VALID,0.0,VALID,73.2,VALID,613.781,VALID,25.576,VALID,146.0,VALID,0.0,
2019-01-06, 10:01:06,VALID,919.293,VALID,0.0,VALID,72.692,VALID,780.212,VALID,25.859,VALID,107.0,VALID,0.0,
2019-01-06, 10:02:06,VALID,919.291,VALID,0.0,VALID,70.032,VALID,430.735,VALID,26.002,VALID,124.0,VALID,0.0,
2019-01-06, 10:03:06,VALID,919.28,VALID,0.0,VALID,70.406,VALID,424.814,VALID,26.04,VALID,75.0,VALID,0.0,
2019-01-06, 10:04:06,VALID,919.274,VALID,0.0,VALID,72.464,VALID,513.495,VALID,26.063,VALID,97.0,VALID,0.0,
2019-01-06, 10:05:06,VALID,919.258,VALID,0.0,VALID,72.154,VALID,459.249,VALID,26.029,VALID,101.0,VALID,0.0,
2019-01-06, 10:06:06,VALID,919.273,VALID,0.0,VALID,70.185,VALID,359.382,VALID,25.983,VALID,102.0,VALID,0.0,
2019-01-06, 10:07:06,VALID,919.269,VALID,0.0,VALID,70.761,VALID,364.607,VALID,26.141,VALID,145.0,VALID,0.0,
2019-01-06, 10:08:06,VALID,919.25,VALID,0.0,VALID,67.979,VALID,479.867,VALID,26.118,VALID,162.0,VALID,0.0,
2019-01-06, 10:09:06,VALID,919.251,VALID,0.0,VALID,69.232,VALID,486.112,VALID,25.978,VALID,120.0,VALID,0.0,
2019-01-06, 10:10:06,VALID,919.228,VALID,0.0,VALID,70.445,VALID,462.722,VALID,25.977,VALID,178.0,VALID,0.0,
2019-01-06, 10:11:06,VALID,919.219,VALID,0.0,VALID,69.833,VALID,414.457,VALID,25.837,VALID,169.0,VALID,0.0,
2019-01-06, 10:12:06,VALID,919.19,VALID,0.0,VALID,70.601,VALID,434.508,VALID,25.876,VALID,178.0,VALID,0.0,
2019-01-06, 10:13:06,VALID,919.197,VALID,0.0,VALID,71.368,VALID,410.603,VALID,25.79,VALID,123.0,VALID,0.0,
2019-01-06, 10:14:06,VALID,919.192,VALID,0.0,VALID,72.629,VALID,311.273,VALID,25.718,VALID,94.0,VALID,0.0,
2019-01-06, 10:15:06,VALID,919.185,VALID,0.0,VALID,73.13,VALID,508.506,VALID,25.729,VALID,121.0,VALID,0.0,
2019-01-06, 10:16:06,VALID,919.187,VALID,0.0,VALID,72.659,VALID,375.287,VALID,25.894,VALID,110.0,VALID,0.0,
2019-01-06, 10:17:06,VALID,919.169,VALID,0.0,VALID,71.631,VALID,384.354,VALID,25.977,VALID,135.0,VALID,0.0,
2019-01-06, 10:18:06,VALID,919.176,VALID,0.0,VALID,71.559,VALID,345.438,VALID,26.049,VALID,104.0,VALID,0.0,
2019-01-06, 10:19:06,VALID,919.161,VALID,0.0,VALID,71.529,VALID,329.343,VALID,26.052,VALID,143.0,VALID,0.0,
2019-01-06, 10:20:06,VALID,919.16,VALID,0.0,VALID,70.775,VALID,300.085,VALID,25.972,VALID,135.0,VALID,0.0,
2019-01-06, 10:21:06,VALID,919.157,VALID,0.0,VALID,70.315,VALID,292.771,VALID,26.034,VALID,180.0,VALID,0.0,
2019-01-06, 10:22:06,VALID,919.14,VALID,0.0,VALID,69.945,VALID,292.597,VALID,25.943,VALID,135.0,VALID,0.0,
2019-01-06, 10:23:06,VALID,919.128,VALID,0.0,VALID,70.08,VALID,292.15,VALID,25.819,VALID,173.0,VALID,0.0,
2019-01-06, 10:24:06,VALID,919.106,VALID,0.0,VALID,71.82,VALID,288.485,VALID,25.76,VALID,180.0,VALID,0.0,
2019-01-06, 10:25:06,VALID,919.095,VALID,0.0,VALID,71.318,VALID,402.209,VALID,25.613,VALID,176.0,VALID,0.0,
2019-01-06, 10:26:06,VALID,919.083,VALID,0.0,VALID,71.748,VALID,273.843,VALID,25.501,VALID,174.0,VALID,0.0,
2019-01-06, 10:27:06,VALID,919.067,VALID,0.0,VALID,73.145,VALID,249.506,VALID,25.391,VALID,103.0,VALID,0.0,
2019-01-06, 10:28:06,VALID,919.048,VALID,0.0,VALID,73.474,VALID,242.085,VALID,25.356,VALID,96.0,VALID,0.0,
2019-01-06, 10:29:06,VALID,919.047,VALID,0.0,VALID,73.514,VALID,233.937,VALID,25.282,VALID,80.0,VALID,0.0,
2019-01-06, 10:30:06,VALID,919.055,VALID,0.0,VALID,74.528,VALID,227.158,VALID,25.2,VALID,74.0,VALID,0.0,
2019-01-06, 10:31:06,VALID,919.042,VALID,0.0,VALID,75.791,VALID,220.985,VALID,25.139,VALID,43.0,VALID,0.0,
2019-01-06, 10:32:06,VALID,919.039,VALID,0.0,VALID,76.055,VALID,209.719,VALID,25.073,VALID,37.0,VALID,0.0,
2019-01-06, 10:33:06,VALID,919.032,VALID,0.0,VALID,76.471,VALID,200.936,VALID,24.991,VALID,46.0,VALID,0.0,
2019-01-06, 10:34:06,VALID,919.04,VALID,0.0,VALID,77.046,VALID,200.237,VALID,24.944,VALID,10.0,VALID,0.0,
2019-01-06, 10:35:06,VALID,919.033,VALID,0.0,VALID,77.745,VALID,201.457,VALID,24.877,VALID,359.0,VALID,0.0,
2019-01-06, 10:36:06,VALID,919.034,VALID,0.0,VALID,77.829,VALID,206.587,VALID,24.83,VALID,358.0,VALID,0.0,
2019-01-06, 10:37:06,VALID,919.046,VALID,0.0,VALID,78.126,VALID,215.133,VALID,24.837,VALID,5.0,VALID,0.0,
2019-01-06, 10:38:06,VALID,919.05,VALID,0.0,VALID,77.905,VALID,223.736,VALID,24.847,VALID,29.0,VALID,0.0,
2019-01-06, 10:39:06,VALID,919.062,VALID,0.0,VALID,77.44,VALID,221.575,VALID,24.98,VALID,24.0,VALID,0.0,